Islip, NY

8:11 PM EDT on October 22, 2017 (GMT -0400)
Long Island Mac Arthur

Weather History for KISP - February, 2014

Change the Weather History Date:

Saturday, February 22, 2014

  Actual Average Record
Temperature  
Mean Temperature 40 °F 34 °F  
Max Temperature 49 °F 42 °F 66 °F (1991)
Min Temperature 30 °F 26 °F 12 °F (2001)
Degree Days  
Heating Degree Days 25 31  
Month to date heating degree days 765 720  
Since 1 July heating degree days 3737 3712  
Cooling Degree Days 0 0  
Month to date cooling degree days 0 0  
Year to date cooling degree days 0 0  
Moisture  
Dew Point 29 °F    
Average Humidity 68    
Maximum Humidity 96    
Minimum Humidity 39    
Precipitation  
Precipitation 0.00 in 0.12 in 1.93 in (2003)
Month to date precipitation 4.29 2.45  
Year to date precipitation 8.27 6.09  
Snow  
Snow 0.00 in 0.30 in 5.50 in (2008)
Month to date snowfall 23.9 5.6  
Since 1 July snowfall 57.5 18.2  
Snow Depth 1.00 in    
Sea Level Pressure  
Sea Level Pressure 30.00 in    
Wind  
Wind Speed 10 mph (SW)    
Max Wind Speed 22 mph    
Max Gust Speed 30 mph    
Visibility 10 miles    
Events      
T = Trace of Precipitation, MM = Missing Value Source: NWS Daily Summary

Daily Weather History Graph

Daily Weather History Graph

Search for Another Location

Airport or City:

Trip Planner

Search our weather history database for the weather conditions in past years. The results will help you decide how hot, cold, wet, or windy it might be!

Date:

Astronomy

Feb. 22, 2014 Rise Set
Actual Time 6:36 AM EST 5:35 PM EST
Civil Twilight 6:09 AM EST 6:03 PM EST
Nautical Twilight 5:37 AM EST 6:35 PM EST
Astronomical Twilight 5:05 AM EST 7:06 PM EST
Moon 12:30 AM EST (2/22) 10:43 AM EST (2/22)
Length of Visible Light 11h 54m
Length of Day
10h 58m
Waning Gibbous, 50% of the Moon is Illuminated
Feb 22
Waning Gibbous
Feb 22
Last Quarter
Mar 1
New
Mar 8
First Quarter
Mar 16
Full

Hourly Weather History & Observations

Time (EST) Temp. Windchill Dew Point Humidity Pressure Visibility Wind Dir Wind Speed Gust Speed Precip Events Conditions
12:56 AM 34.0 °F 31.0 °F 32.0 °F 92% 29.92 in 10.0 mi WSW 3.5 mph - N/A   Clear
1:56 AM 33.1 °F - 32.0 °F 96% 29.92 in 10.0 mi Calm Calm - N/A   Clear
2:56 AM 32.0 °F 27.5 °F 30.0 °F 92% 29.93 in 8.0 mi SW 4.6 mph - N/A   Clear
3:56 AM 32.0 °F 28.7 °F 30.0 °F 92% 29.94 in 10.0 mi WSW 3.5 mph - N/A   Clear
4:56 AM 35.1 °F 32.2 °F 30.9 °F 85% 29.98 in 10.0 mi WSW 3.5 mph - N/A   Clear
5:56 AM 32.0 °F 27.5 °F 28.0 °F 85% 30.00 in 10.0 mi West 4.6 mph - N/A   Partly Cloudy
6:56 AM 33.1 °F 26.1 °F 28.9 °F 85% 30.01 in 10.0 mi WSW 8.1 mph - N/A   Scattered Clouds
7:56 AM 39.0 °F 32.8 °F 30.9 °F 73% 30.04 in 10.0 mi WSW 9.2 mph - N/A   Mostly Cloudy
8:56 AM 42.1 °F 36.6 °F 30.0 °F 62% 30.05 in 10.0 mi WSW 9.2 mph - N/A   Mostly Cloudy
9:56 AM 45.0 °F 41.2 °F 28.0 °F 52% 30.05 in 10.0 mi SW 6.9 mph - N/A   Mostly Cloudy
10:56 AM 45.0 °F 38.2 °F 25.0 °F 46% 30.04 in 10.0 mi SW 15.0 mph - N/A   Partly Cloudy
11:56 AM 48.0 °F - 24.1 °F 39% 30.03 in 10.0 mi SW 13.8 mph - N/A   Partly Cloudy
12:56 PM 48.9 °F - 25.0 °F 39% 29.99 in 10.0 mi SSW 19.6 mph 25.3 mph N/A   Partly Cloudy
1:56 PM 48.9 °F - 27.0 °F 43% 29.97 in 10.0 mi SW 16.1 mph - N/A   Partly Cloudy
2:56 PM 48.0 °F - 27.0 °F 44% 29.97 in 10.0 mi SSW 16.1 mph 23.0 mph N/A   Partly Cloudy
3:56 PM 46.0 °F 38.5 °F 28.0 °F 50% 29.98 in 10.0 mi SW 19.6 mph 26.5 mph N/A   Partly Cloudy
4:56 PM 44.1 °F 37.7 °F 28.0 °F 53% 29.98 in 10.0 mi SSW 12.7 mph - N/A   Partly Cloudy
5:56 PM 42.1 °F 34.5 °F 28.0 °F 58% 29.99 in 10.0 mi SSW 15.0 mph - N/A   Partly Cloudy
6:56 PM 41.0 °F 33.9 °F 28.0 °F 60% 30.00 in 10.0 mi SW 12.7 mph - N/A   Clear
7:56 PM 42.1 °F 35.7 °F 28.9 °F 60% 30.01 in 10.0 mi SW 11.5 mph - N/A   Clear
8:56 PM 41.0 °F 35.8 °F 28.9 °F 62% 30.02 in 10.0 mi SW 8.1 mph - N/A   Partly Cloudy
9:56 PM 41.0 °F 35.2 °F 30.0 °F 65% 30.03 in 10.0 mi SW 9.2 mph - N/A   Partly Cloudy
10:56 PM 39.0 °F 34.0 °F 30.0 °F 70% 30.03 in 10.0 mi SW 6.9 mph - N/A   Partly Cloudy
11:56 PM 39.0 °F 34.0 °F 30.0 °F 70% 30.02 in 10.0 mi SW 6.9 mph - N/A   Partly Cloudy